Volver al catálogo

COSMOS 2181

ActivoMilitarPO
NORAD 21902·PAYLOAD·🇷🇺 Russia

Lanzado Mar 9, 1992 desde Plesetsk Cosmodrome

Loading…

Próximos Pases (próximas 24 horas)

TLE

ActualizadoSource: Space-Track

Época: Sep 14, 2026, 10:30 UTC

1 21902U 92012A   26257.43793527  .00000015  00000-0 -36530-7 0  9991
2 21902  82.9397 242.1012 0028185 188.8622 333.9659 13.72575088728567

Sigue COSMOS 2181 en tiempo real con AllMySat

Download on the App Store